Year,Month,Day,Hour,Minute,Value (Times are PST for insolation in W/m^2)
2016,10,01,00,00,0.00
2016,10,01,00,01,0.00
2016,10,01,00,02,0.00
2016,10,01,00,03,0.00
2016,10,01,00,04,0.00
2016,10,01,00,05,0.00
2016,10,01,00,06,0.00
2016,10,01,00,07,0.00
2016,10,01,00,08,0.00
2016,10,01,00,09,0.00
2016,10,01,00,10,0.00
2016,10,01,00,11,0.00
2016,10,01,00,12,0.00
2016,10,01,00,13,0.00
2016,10,01,00,14,0.00
2016,10,01,00,15,0.00
2016,10,01,00,16,0.00
2016,10,01,00,17,0.00
2016,10,01,00,18,0.00
2016,10,01,00,19,0.00
2016,10,01,00,20,0.00
2016,10,01,00,21,0.00
2016,10,01,00,22,0.00
2016,10,01,00,23,0.00
2016,10,01,00,24,0.00
2016,10,01,00,25,0.00
2016,10,01,00,26,0.00
2016,10,01,00,27,0.00
2016,10,01,00,28,0.00
2016,10,01,00,29,0.00
2016,10,01,00,30,0.00
2016,10,01,00,31,0.00
2016,10,01,00,32,0.00
2016,10,01,00,33,0.00
2016,10,01,00,34,0.00
2016,10,01,00,35,0.00
2016,10,01,00,36,0.00
2016,10,01,00,37,0.00
2016,10,01,00,38,0.00
2016,10,01,00,39,0.00
2016,10,01,00,40,0.00
2016,10,01,00,41,0.00
2016,10,01,00,42,0.00
2016,10,01,00,43,0.00
2016,10,01,00,44,0.00
2016,10,01,00,45,0.00
2016,10,01,00,46,0.00
2016,10,01,00,47,0.00
2016,10,01,00,48,0.00
2016,10,01,00,49,0.00
2016,10,01,00,50,0.00
2016,10,01,00,51,0.00
2016,10,01,00,52,0.00
2016,10,01,00,53,0.00
2016,10,01,00,54,0.00
2016,10,01,00,55,0.00
2016,10,01,00,56,0.00
2016,10,01,00,57,0.00
2016,10,01,00,58,0.00
2016,10,01,00,59,0.00
2016,10,01,01,00,0.00
2016,10,01,01,01,0.00
2016,10,01,01,02,0.00
2016,10,01,01,03,0.00
2016,10,01,01,04,0.00
2016,10,01,01,05,0.00
2016,10,01,01,06,0.00
2016,10,01,01,07,0.00
2016,10,01,01,08,0.00
2016,10,01,01,09,0.00
2016,10,01,01,10,0.00
2016,10,01,01,11,0.00
2016,10,01,01,12,0.00
2016,10,01,01,13,0.00
2016,10,01,01,14,0.00
2016,10,01,01,15,0.00
2016,10,01,01,16,0.00
2016,10,01,01,17,0.00
2016,10,01,01,18,0.00
2016,10,01,01,19,0.00
2016,10,01,01,20,0.00
2016,10,01,01,21,0.00
2016,10,01,01,22,0.00
2016,10,01,01,23,0.00
2016,10,01,01,24,0.00
2016,10,01,01,25,0.00
2016,10,01,01,26,0.00
2016,10,01,01,27,0.00
2016,10,01,01,28,0.00
2016,10,01,01,29,0.00
2016,10,01,01,30,0.00
2016,10,01,01,31,0.00
2016,10,01,01,32,0.00
2016,10,01,01,33,0.00
2016,10,01,01,34,0.00
2016,10,01,01,35,0.00
2016,10,01,01,36,0.00
2016,10,01,01,37,0.00
2016,10,01,01,38,0.00
2016,10,01,01,39,0.00
2016,10,01,01,40,0.00
2016,10,01,01,41,0.00
2016,10,01,01,42,0.00
2016,10,01,01,43,0.00
2016,10,01,01,44,0.00
2016,10,01,01,45,0.00
2016,10,01,01,46,0.00
2016,10,01,01,47,0.00
2016,10,01,01,48,0.00
2016,10,01,01,49,0.00
2016,10,01,01,50,0.00
2016,10,01,01,51,0.00
2016,10,01,01,52,0.00
2016,10,01,01,53,0.00
2016,10,01,01,54,0.00
2016,10,01,01,55,0.00
2016,10,01,01,56,0.00
2016,10,01,01,57,0.00
2016,10,01,01,58,0.00
2016,10,01,01,59,0.00
2016,10,01,02,00,0.00
2016,10,01,02,01,0.00
2016,10,01,02,02,0.00
2016,10,01,02,03,0.00
2016,10,01,02,04,0.00
2016,10,01,02,05,0.00
2016,10,01,02,06,0.00
2016,10,01,02,07,0.00
2016,10,01,02,08,0.00
2016,10,01,02,09,0.00
2016,10,01,02,10,0.00
2016,10,01,02,11,0.00
2016,10,01,02,12,0.00
2016,10,01,02,13,0.00
2016,10,01,02,14,0.00
2016,10,01,02,15,0.00
2016,10,01,02,16,0.00
2016,10,01,02,17,0.00
2016,10,01,02,18,0.00
2016,10,01,02,19,0.00
2016,10,01,02,20,0.00
2016,10,01,02,21,0.00
2016,10,01,02,22,0.00
2016,10,01,02,23,0.00
2016,10,01,02,24,0.00
2016,10,01,02,25,0.00
2016,10,01,02,26,0.00
2016,10,01,02,27,0.00
2016,10,01,02,28,0.00
2016,10,01,02,29,0.00
2016,10,01,02,30,0.00
2016,10,01,02,31,0.00
2016,10,01,02,32,0.00
2016,10,01,02,33,0.00
2016,10,01,02,34,0.00
2016,10,01,02,35,0.00
2016,10,01,02,36,0.00
2016,10,01,02,37,0.00
2016,10,01,02,38,0.00
2016,10,01,02,39,0.00
2016,10,01,02,40,0.00
2016,10,01,02,41,0.00
2016,10,01,02,42,0.00
2016,10,01,02,43,0.00
2016,10,01,02,44,0.00
2016,10,01,02,45,0.00
2016,10,01,02,46,0.00
2016,10,01,02,47,0.00
2016,10,01,02,48,0.00
2016,10,01,02,49,0.00
2016,10,01,02,50,0.00
2016,10,01,02,51,0.00
2016,10,01,02,52,0.00
2016,10,01,02,53,0.00
2016,10,01,02,54,0.00
2016,10,01,02,55,0.00
2016,10,01,02,56,0.00
2016,10,01,02,57,0.00
2016,10,01,02,58,0.00
2016,10,01,02,59,0.00
2016,10,01,03,00,0.00
2016,10,01,03,01,0.00
2016,10,01,03,02,0.00
2016,10,01,03,03,0.00
2016,10,01,03,04,0.00
2016,10,01,03,05,0.00
2016,10,01,03,06,0.00
2016,10,01,03,07,0.00
2016,10,01,03,08,0.00
2016,10,01,03,09,0.00
2016,10,01,03,10,0.00
2016,10,01,03,11,0.00
2016,10,01,03,12,0.00
2016,10,01,03,13,0.00
2016,10,01,03,14,0.00
2016,10,01,03,15,0.00
2016,10,01,03,16,0.00
2016,10,01,03,17,0.00
2016,10,01,03,18,0.00
2016,10,01,03,19,0.00
2016,10,01,03,20,0.00
2016,10,01,03,21,0.00
2016,10,01,03,22,0.00
2016,10,01,03,23,0.00
2016,10,01,03,24,0.00
2016,10,01,03,25,0.00
2016,10,01,03,26,0.00
2016,10,01,03,27,0.00
2016,10,01,03,28,0.00
2016,10,01,03,29,0.00
2016,10,01,03,30,0.00
2016,10,01,03,31,0.00
2016,10,01,03,32,0.00
2016,10,01,03,33,0.00
2016,10,01,03,34,0.00
2016,10,01,03,35,0.00
2016,10,01,03,36,0.00
2016,10,01,03,37,0.00
2016,10,01,03,38,0.00
2016,10,01,03,39,0.00
2016,10,01,03,40,0.00
2016,10,01,03,41,0.00
2016,10,01,03,42,0.00
2016,10,01,03,43,0.00
2016,10,01,03,44,0.00
2016,10,01,03,45,0.00
2016,10,01,03,46,0.00
2016,10,01,03,47,0.00
2016,10,01,03,48,0.00
2016,10,01,03,49,0.00
2016,10,01,03,50,0.00
2016,10,01,03,51,0.00
2016,10,01,03,52,0.00
2016,10,01,03,53,0.00
2016,10,01,03,54,0.00
2016,10,01,03,55,0.00
2016,10,01,03,56,0.00
2016,10,01,03,57,0.00
2016,10,01,03,58,0.00
2016,10,01,03,59,0.00
2016,10,01,04,00,0.00
2016,10,01,04,01,0.00
2016,10,01,04,02,0.00
2016,10,01,04,03,0.00
2016,10,01,04,04,0.00
2016,10,01,04,05,0.00
2016,10,01,04,06,0.00
2016,10,01,04,07,0.00
2016,10,01,04,08,0.00
2016,10,01,04,09,0.00
2016,10,01,04,10,0.00
2016,10,01,04,11,0.00
2016,10,01,04,12,0.00
2016,10,01,04,13,0.00
2016,10,01,04,14,0.00
2016,10,01,04,15,0.00
2016,10,01,04,16,0.00
2016,10,01,04,17,0.00
2016,10,01,04,18,0.00
2016,10,01,04,19,0.00
2016,10,01,04,20,0.00
2016,10,01,04,21,0.00
2016,10,01,04,22,0.00
2016,10,01,04,23,0.00
2016,10,01,04,24,0.00
2016,10,01,04,25,0.00
2016,10,01,04,26,0.00
2016,10,01,04,27,0.00
2016,10,01,04,28,0.00
2016,10,01,04,29,0.00
2016,10,01,04,30,0.00
2016,10,01,04,31,0.00
2016,10,01,04,32,0.00
2016,10,01,04,33,0.00
2016,10,01,04,34,0.00
2016,10,01,04,35,0.00
2016,10,01,04,36,0.00
2016,10,01,04,37,0.00
2016,10,01,04,38,0.00
2016,10,01,04,39,0.00
2016,10,01,04,40,0.00
2016,10,01,04,41,0.00
2016,10,01,04,42,0.00
2016,10,01,04,43,0.00
2016,10,01,04,44,0.00
2016,10,01,04,45,0.00
2016,10,01,04,46,0.00
2016,10,01,04,47,0.00
2016,10,01,04,48,0.00
2016,10,01,04,49,0.00
2016,10,01,04,50,0.00
2016,10,01,04,51,0.00
2016,10,01,04,52,0.00
2016,10,01,04,53,0.00
2016,10,01,04,54,0.00
2016,10,01,04,55,0.00
2016,10,01,04,56,0.00
2016,10,01,04,57,0.00
2016,10,01,04,58,0.00
2016,10,01,04,59,0.00
2016,10,01,05,00,0.00
2016,10,01,05,01,0.00
2016,10,01,05,02,0.00
2016,10,01,05,03,0.00
2016,10,01,05,04,0.00
2016,10,01,05,05,0.00
2016,10,01,05,06,0.00
2016,10,01,05,07,0.00
2016,10,01,05,08,0.00
2016,10,01,05,09,0.00
2016,10,01,05,10,0.00
2016,10,01,05,11,0.00
2016,10,01,05,12,0.00
2016,10,01,05,13,0.00
2016,10,01,05,14,0.00
2016,10,01,05,15,0.00
2016,10,01,05,16,0.00
2016,10,01,05,17,0.00
2016,10,01,05,18,0.00
2016,10,01,05,19,0.00
2016,10,01,05,20,0.00
2016,10,01,05,21,0.00
2016,10,01,05,22,0.00
2016,10,01,05,23,0.00
2016,10,01,05,24,0.00
2016,10,01,05,25,0.00
2016,10,01,05,26,0.00
2016,10,01,05,27,0.00
2016,10,01,05,28,0.00
2016,10,01,05,29,0.00
2016,10,01,05,30,0.00
2016,10,01,05,31,0.00
2016,10,01,05,32,0.00
2016,10,01,05,33,0.00
2016,10,01,05,34,0.00
2016,10,01,05,35,0.00
2016,10,01,05,36,0.00
2016,10,01,05,37,0.00
2016,10,01,05,38,0.00
2016,10,01,05,39,0.00
2016,10,01,05,40,0.00
2016,10,01,05,41,0.00
2016,10,01,05,42,0.00
2016,10,01,05,43,0.00
2016,10,01,05,44,0.00
2016,10,01,05,45,0.00
2016,10,01,05,46,0.00
2016,10,01,05,47,0.00
2016,10,01,05,48,0.00
2016,10,01,05,49,0.00
2016,10,01,05,50,0.00
2016,10,01,05,51,0.00
2016,10,01,05,52,0.00
2016,10,01,05,53,0.00
2016,10,01,05,54,0.00
2016,10,01,05,55,0.00
2016,10,01,05,56,0.00
2016,10,01,05,57,0.00
2016,10,01,05,58,0.00
2016,10,01,05,59,0.00
2016,10,01,06,00,0.00
2016,10,01,06,01,0.00
2016,10,01,06,02,0.00
2016,10,01,06,03,0.00
2016,10,01,06,04,0.00
2016,10,01,06,05,0.00
2016,10,01,06,06,0.00
2016,10,01,06,07,0.00
2016,10,01,06,08,0.00
2016,10,01,06,09,0.00
2016,10,01,06,10,0.00
2016,10,01,06,11,0.00
2016,10,01,06,12,0.00
2016,10,01,06,13,0.00
2016,10,01,06,14,0.00
2016,10,01,06,15,0.00
2016,10,01,06,16,0.00
2016,10,01,06,17,0.00
2016,10,01,06,18,0.00
2016,10,01,06,19,0.00
2016,10,01,06,20,0.00
2016,10,01,06,21,0.00
2016,10,01,06,22,0.00
2016,10,01,06,23,0.00
2016,10,01,06,24,0.00
2016,10,01,06,25,0.00
2016,10,01,06,26,0.00
2016,10,01,06,27,0.00
2016,10,01,06,28,0.00
2016,10,01,06,29,0.00
2016,10,01,06,30,0.00
2016,10,01,06,31,0.00
2016,10,01,06,32,0.00
2016,10,01,06,33,0.00
2016,10,01,06,34,0.00
2016,10,01,06,35,0.00
2016,10,01,06,36,0.00
2016,10,01,06,37,0.00
2016,10,01,06,38,0.00
2016,10,01,06,39,0.00
2016,10,01,06,40,0.00
2016,10,01,06,41,0.00
2016,10,01,06,42,0.00
2016,10,01,06,43,0.00
2016,10,01,06,44,0.00
2016,10,01,06,45,0.00
2016,10,01,06,46,0.00
2016,10,01,06,47,0.00
2016,10,01,06,48,0.00
2016,10,01,06,49,0.00
2016,10,01,06,50,0.00
2016,10,01,06,51,0.00
2016,10,01,06,52,0.00
2016,10,01,06,53,0.00
2016,10,01,06,54,0.00
2016,10,01,06,55,0.00
2016,10,01,06,56,0.00
2016,10,01,06,57,0.00
2016,10,01,06,58,0.00
2016,10,01,06,59,0.00
2016,10,01,07,00,0.00
2016,10,01,07,01,0.00
2016,10,01,07,02,0.00
2016,10,01,07,03,0.00
2016,10,01,07,04,0.00
2016,10,01,07,05,0.00
2016,10,01,07,06,0.00
2016,10,01,07,07,0.00
2016,10,01,07,08,0.00
2016,10,01,07,09,0.00
2016,10,01,07,10,0.00
2016,10,01,07,11,0.00
2016,10,01,07,12,0.00
2016,10,01,07,13,0.00
2016,10,01,07,14,0.00
2016,10,01,07,15,0.00
2016,10,01,07,16,0.00
2016,10,01,07,17,0.00
2016,10,01,07,18,0.00
2016,10,01,07,19,0.00
2016,10,01,07,20,0.00
2016,10,01,07,21,0.00
2016,10,01,07,22,2.40
2016,10,01,07,23,5.00
2016,10,01,07,24,5.00
2016,10,01,07,25,7.80
2016,10,01,07,26,9.00
2016,10,01,07,27,9.00
2016,10,01,07,28,9.00
2016,10,01,07,29,10.90
2016,10,01,07,30,11.20
2016,10,01,07,31,14.00
2016,10,01,07,32,14.00
2016,10,01,07,33,14.00
2016,10,01,07,34,13.40
2016,10,01,07,35,12.80
2016,10,01,07,36,14.90
2016,10,01,07,37,16.00
2016,10,01,07,38,14.90
2016,10,01,07,39,14.00
2016,10,01,07,40,14.00
2016,10,01,07,41,17.80
2016,10,01,07,42,20.70
2016,10,01,07,43,21.00
2016,10,01,07,44,21.00
2016,10,01,07,45,21.00
2016,10,01,07,46,21.00
2016,10,01,07,47,21.40
2016,10,01,07,48,22.50
2016,10,01,07,49,21.00
2016,10,01,07,50,21.00
2016,10,01,07,51,21.00
2016,10,01,07,52,21.00
2016,10,01,07,53,21.00
2016,10,01,07,54,21.00
2016,10,01,07,55,23.80
2016,10,01,07,56,25.80
2016,10,01,07,57,27.60
2016,10,01,07,58,28.00
2016,10,01,07,59,26.10
2016,10,01,08,00,28.30
2016,10,01,08,01,32.30
2016,10,01,08,02,35.80
2016,10,01,08,03,39.00
2016,10,01,08,04,39.30
2016,10,01,08,05,40.00
2016,10,01,08,06,40.90
2016,10,01,08,07,43.00
2016,10,01,08,08,46.90
2016,10,01,08,09,51.60
2016,10,01,08,10,53.70
2016,10,01,08,11,54.00
2016,10,01,08,12,55.60
2016,10,01,08,13,56.00
2016,10,01,08,14,59.90
2016,10,01,08,15,59.90
2016,10,01,08,16,58.40
2016,10,01,08,17,62.00
2016,10,01,08,18,62.00
2016,10,01,08,19,61.40
2016,10,01,08,20,60.00
2016,10,01,08,21,60.00
2016,10,01,08,22,61.00
2016,10,01,08,23,62.00
2016,10,01,08,24,63.90
2016,10,01,08,25,66.40
2016,10,01,08,26,67.00
2016,10,01,08,27,69.40
2016,10,01,08,28,71.80
2016,10,01,08,29,75.70
2016,10,01,08,30,77.30
2016,10,01,08,31,81.70
2016,10,01,08,32,87.00
2016,10,01,08,33,97.80
2016,10,01,08,34,119.60
2016,10,01,08,35,118.40
2016,10,01,08,36,109.20
2016,10,01,08,37,103.40
2016,10,01,08,38,106.10
2016,10,01,08,39,111.00
2016,10,01,08,40,112.40
2016,10,01,08,41,110.00
2016,10,01,08,42,105.70
2016,10,01,08,43,99.00
2016,10,01,08,44,103.60
2016,10,01,08,45,108.20
2016,10,01,08,46,100.30
2016,10,01,08,47,117.70
2016,10,01,08,48,108.20
2016,10,01,08,49,118.90
2016,10,01,08,50,115.70
2016,10,01,08,51,102.50
2016,10,01,08,52,103.00
2016,10,01,08,53,109.00
2016,10,01,08,54,106.50
2016,10,01,08,55,120.20
2016,10,01,08,56,105.20
2016,10,01,08,57,98.00
2016,10,01,08,58,87.70
2016,10,01,08,59,77.60
2016,10,01,09,00,91.50
2016,10,01,09,01,102.80
2016,10,01,09,02,91.40
2016,10,01,09,03,72.90
2016,10,01,09,04,72.20
2016,10,01,09,05,79.10
2016,10,01,09,06,88.80
2016,10,01,09,07,98.40
2016,10,01,09,08,107.00
2016,10,01,09,09,133.50
2016,10,01,09,10,148.10
2016,10,01,09,11,220.30
2016,10,01,09,12,266.00
2016,10,01,09,13,281.30
2016,10,01,09,14,272.40
2016,10,01,09,15,308.70
2016,10,01,09,16,308.60
2016,10,01,09,17,243.90
2016,10,01,09,18,220.30
2016,10,01,09,19,226.20
2016,10,01,09,20,201.00
2016,10,01,09,21,197.40
2016,10,01,09,22,205.50
2016,10,01,09,23,202.00
2016,10,01,09,24,187.70
2016,10,01,09,25,136.20
2016,10,01,09,26,112.40
2016,10,01,09,27,109.40
2016,10,01,09,28,107.30
2016,10,01,09,29,110.70
2016,10,01,09,30,136.10
2016,10,01,09,31,146.90
2016,10,01,09,32,120.40
2016,10,01,09,33,118.60
2016,10,01,09,34,123.90
2016,10,01,09,35,125.90
2016,10,01,09,36,115.10
2016,10,01,09,37,110.60
2016,10,01,09,38,105.30
2016,10,01,09,39,104.60
2016,10,01,09,40,109.10
2016,10,01,09,41,113.30
2016,10,01,09,42,115.60
2016,10,01,09,43,122.00
2016,10,01,09,44,126.70
2016,10,01,09,45,127.50
2016,10,01,09,46,135.60
2016,10,01,09,47,149.00
2016,10,01,09,48,150.70
2016,10,01,09,49,156.00
2016,10,01,09,50,157.40
2016,10,01,09,51,160.00
2016,10,01,09,52,163.40
2016,10,01,09,53,170.90
2016,10,01,09,54,177.00
2016,10,01,09,55,179.00
2016,10,01,09,56,184.10
2016,10,01,09,57,193.10
2016,10,01,09,58,196.70
2016,10,01,09,59,201.80
2016,10,01,10,00,202.80
2016,10,01,10,01,241.30
2016,10,01,10,02,246.90
2016,10,01,10,03,271.00
2016,10,01,10,04,280.70
2016,10,01,10,05,256.80
2016,10,01,10,06,251.00
2016,10,01,10,07,251.00
2016,10,01,10,08,305.30
2016,10,01,10,09,383.20
2016,10,01,10,10,444.00
2016,10,01,10,11,459.70
2016,10,01,10,12,466.40
2016,10,01,10,13,438.70
2016,10,01,10,14,434.00
2016,10,01,10,15,231.20
2016,10,01,10,16,221.00
2016,10,01,10,17,220.10
2016,10,01,10,18,215.30
2016,10,01,10,19,211.70
2016,10,01,10,20,209.00
2016,10,01,10,21,209.00
2016,10,01,10,22,209.00
2016,10,01,10,23,207.90
2016,10,01,10,24,210.90
2016,10,01,10,25,229.60
2016,10,01,10,26,216.00
2016,10,01,10,27,195.50
2016,10,01,10,28,184.20
2016,10,01,10,29,183.00
2016,10,01,10,30,172.00
2016,10,01,10,31,171.30
2016,10,01,10,32,164.10
2016,10,01,10,33,149.50
2016,10,01,10,34,134.70
2016,10,01,10,35,119.70
2016,10,01,10,36,108.10
2016,10,01,10,37,103.00
2016,10,01,10,38,102.00
2016,10,01,10,39,105.10
2016,10,01,10,40,105.60
2016,10,01,10,41,106.50
2016,10,01,10,42,108.60
2016,10,01,10,43,110.70
2016,10,01,10,44,111.00
2016,10,01,10,45,109.00
2016,10,01,10,46,108.70
2016,10,01,10,47,107.00
2016,10,01,10,48,107.00
2016,10,01,10,49,106.40
2016,10,01,10,50,104.60
2016,10,01,10,51,104.00
2016,10,01,10,52,104.00
2016,10,01,10,53,104.00
2016,10,01,10,54,104.00
2016,10,01,10,55,104.00
2016,10,01,10,56,104.00
2016,10,01,10,57,104.00
2016,10,01,10,58,102.30
2016,10,01,10,59,102.00
2016,10,01,11,00,99.90
2016,10,01,11,01,98.00
2016,10,01,11,02,97.80
2016,10,01,11,03,97.00
2016,10,01,11,04,96.40
2016,10,01,11,05,95.00
2016,10,01,11,06,93.30
2016,10,01,11,07,90.50
2016,10,01,11,08,87.80
2016,10,01,11,09,84.70
2016,10,01,11,10,81.90
2016,10,01,11,11,78.00
2016,10,01,11,12,76.20
2016,10,01,11,13,76.00
2016,10,01,11,14,74.10
2016,10,01,11,15,74.10
2016,10,01,11,16,76.10
2016,10,01,11,17,77.00
2016,10,01,11,18,77.50
2016,10,01,11,19,79.60
2016,10,01,11,20,81.80
2016,10,01,11,21,83.40
2016,10,01,11,22,86.00
2016,10,01,11,23,89.10
2016,10,01,11,24,91.90
2016,10,01,11,25,95.80
2016,10,01,11,26,97.80
2016,10,01,11,27,99.60
2016,10,01,11,28,104.30
2016,10,01,11,29,108.70
2016,10,01,11,30,113.30
2016,10,01,11,31,118.70
2016,10,01,11,32,123.80
2016,10,01,11,33,128.40
2016,10,01,11,34,133.60
2016,10,01,11,35,138.50
2016,10,01,11,36,142.30
2016,10,01,11,37,144.00
2016,10,01,11,38,144.00
2016,10,01,11,39,145.20
2016,10,01,11,40,146.00
2016,10,01,11,41,152.80
2016,10,01,11,42,160.80
2016,10,01,11,43,171.00
2016,10,01,11,44,182.60
2016,10,01,11,45,195.80
2016,10,01,11,46,208.10
2016,10,01,11,47,218.90
2016,10,01,11,48,223.00
2016,10,01,11,49,220.80
2016,10,01,11,50,212.20
2016,10,01,11,51,200.20
2016,10,01,11,52,185.20
2016,10,01,11,53,168.90
2016,10,01,11,54,153.30
2016,10,01,11,55,140.40
2016,10,01,11,56,130.50
2016,10,01,11,57,122.40
2016,10,01,11,58,116.70
2016,10,01,11,59,111.30
2016,10,01,12,00,110.50
2016,10,01,12,01,103.40
2016,10,01,12,02,99.60
2016,10,01,12,03,97.70
2016,10,01,12,04,97.00
2016,10,01,12,05,96.20
2016,10,01,12,06,95.00
2016,10,01,12,07,95.00
2016,10,01,12,08,95.00
2016,10,01,12,09,96.20
2016,10,01,12,10,97.70
2016,10,01,12,11,99.50
2016,10,01,12,12,103.30
2016,10,01,12,13,104.00
2016,10,01,12,14,117.50
2016,10,01,12,15,125.00
2016,10,01,12,16,126.70
2016,10,01,12,17,142.40
2016,10,01,12,18,151.20
2016,10,01,12,19,160.20
2016,10,01,12,20,167.70
2016,10,01,12,21,175.10
2016,10,01,12,22,182.10
2016,10,01,12,23,185.00
2016,10,01,12,24,187.00
2016,10,01,12,25,185.90
2016,10,01,12,26,182.10
2016,10,01,12,27,178.60
2016,10,01,12,28,178.00
2016,10,01,12,29,178.00
2016,10,01,12,30,188.80
2016,10,01,12,31,200.10
2016,10,01,12,32,208.40
2016,10,01,12,33,215.70
2016,10,01,12,34,220.30
2016,10,01,12,35,220.60
2016,10,01,12,36,220.00
2016,10,01,12,37,217.10
2016,10,01,12,38,213.40
2016,10,01,12,39,213.00
2016,10,01,12,40,206.80
2016,10,01,12,41,200.20
2016,10,01,12,42,193.20
2016,10,01,12,43,192.00
2016,10,01,12,44,181.20
2016,10,01,12,45,175.90
2016,10,01,12,46,174.00
2016,10,01,12,47,174.30
2016,10,01,12,48,176.70
2016,10,01,12,49,179.60
2016,10,01,12,50,182.50
2016,10,01,12,51,186.30
2016,10,01,12,52,189.00
2016,10,01,12,53,191.10
2016,10,01,12,54,192.60
2016,10,01,12,55,190.90
2016,10,01,12,56,187.00
2016,10,01,12,57,185.20
2016,10,01,12,58,183.30
2016,10,01,12,59,181.10
2016,10,01,13,00,179.00
2016,10,01,13,01,178.50
2016,10,01,13,02,173.10
2016,10,01,13,03,168.00
2016,10,01,13,04,163.40
2016,10,01,13,05,158.10
2016,10,01,13,06,153.20
2016,10,01,13,07,148.60
2016,10,01,13,08,144.90
2016,10,01,13,09,144.00
2016,10,01,13,10,144.00
2016,10,01,13,11,144.00
2016,10,01,13,12,147.30
2016,10,01,13,13,150.60
2016,10,01,13,14,155.70
2016,10,01,13,15,163.60
2016,10,01,13,16,173.00
2016,10,01,13,17,180.60
2016,10,01,13,18,189.20
2016,10,01,13,19,194.90
2016,10,01,13,20,200.90
2016,10,01,13,21,205.30
2016,10,01,13,22,210.10
2016,10,01,13,23,217.70
2016,10,01,13,24,230.30
2016,10,01,13,25,251.20
2016,10,01,13,26,280.00
2016,10,01,13,27,312.70
2016,10,01,13,28,346.70
2016,10,01,13,29,350.00
2016,10,01,13,30,393.20
2016,10,01,13,31,412.10
2016,10,01,13,32,430.20
2016,10,01,13,33,452.60
2016,10,01,13,34,442.70
2016,10,01,13,35,421.50
2016,10,01,13,36,406.00
2016,10,01,13,37,403.40
2016,10,01,13,38,386.30
2016,10,01,13,39,361.70
2016,10,01,13,40,343.30
2016,10,01,13,41,339.00
2016,10,01,13,42,309.70
2016,10,01,13,43,293.40
2016,10,01,13,44,283.60
2016,10,01,13,45,282.50
2016,10,01,13,46,276.00
2016,10,01,13,47,276.00
2016,10,01,13,48,276.00
2016,10,01,13,49,277.00
2016,10,01,13,50,280.60
2016,10,01,13,51,283.00
2016,10,01,13,52,289.80
2016,10,01,13,53,299.20
2016,10,01,13,54,305.30
2016,10,01,13,55,311.40
2016,10,01,13,56,313.00
2016,10,01,13,57,313.00
2016,10,01,13,58,321.10
2016,10,01,13,59,323.00
2016,10,01,14,00,323.40
2016,10,01,14,01,329.10
2016,10,01,14,02,331.70
2016,10,01,14,03,338.00
2016,10,01,14,04,332.80
2016,10,01,14,05,322.60
2016,10,01,14,06,322.00
2016,10,01,14,07,316.30
2016,10,01,14,08,305.90
2016,10,01,14,09,302.00
2016,10,01,14,10,295.10
2016,10,01,14,11,283.70
2016,10,01,14,12,276.90
2016,10,01,14,13,274.20
2016,10,01,14,14,274.10
2016,10,01,14,15,275.90
2016,10,01,14,16,273.80
2016,10,01,14,17,270.80
2016,10,01,14,18,263.10
2016,10,01,14,19,254.20
2016,10,01,14,20,247.20
2016,10,01,14,21,257.70
2016,10,01,14,22,283.90
2016,10,01,14,23,300.30
2016,10,01,14,24,313.90
2016,10,01,14,25,332.90
2016,10,01,14,26,341.80
2016,10,01,14,27,335.60
2016,10,01,14,28,342.10
2016,10,01,14,29,341.90
2016,10,01,14,30,366.00
2016,10,01,14,31,392.00
2016,10,01,14,32,396.30
2016,10,01,14,33,425.40
2016,10,01,14,34,457.90
2016,10,01,14,35,471.00
2016,10,01,14,36,482.20
2016,10,01,14,37,496.00
2016,10,01,14,38,475.50
2016,10,01,14,39,461.00
2016,10,01,14,40,432.70
2016,10,01,14,41,448.10
2016,10,01,14,42,435.50
2016,10,01,14,43,425.60
2016,10,01,14,44,458.50
2016,10,01,14,45,453.70
2016,10,01,14,46,450.00
2016,10,01,14,47,450.80
2016,10,01,14,48,447.10
2016,10,01,14,49,418.70
2016,10,01,14,50,402.50
2016,10,01,14,51,412.50
2016,10,01,14,52,408.80
2016,10,01,14,53,381.30
2016,10,01,14,54,340.90
2016,10,01,14,55,318.10
2016,10,01,14,56,308.20
2016,10,01,14,57,282.80
2016,10,01,14,58,272.60
2016,10,01,14,59,277.80
2016,10,01,15,00,277.00
2016,10,01,15,01,263.00
2016,10,01,15,02,255.80
2016,10,01,15,03,249.10
2016,10,01,15,04,240.60
2016,10,01,15,05,233.30
2016,10,01,15,06,228.10
2016,10,01,15,07,228.00
2016,10,01,15,08,233.00
2016,10,01,15,09,245.30
2016,10,01,15,10,266.90
2016,10,01,15,11,295.20
2016,10,01,15,12,326.80
2016,10,01,15,13,337.40
2016,10,01,15,14,327.80
2016,10,01,15,15,354.20
2016,10,01,15,16,363.40
2016,10,01,15,17,313.00
2016,10,01,15,18,300.70
2016,10,01,15,19,308.80
2016,10,01,15,20,320.70
2016,10,01,15,21,338.10
2016,10,01,15,22,335.00
2016,10,01,15,23,322.60
2016,10,01,15,24,318.70
2016,10,01,15,25,317.40
2016,10,01,15,26,318.00
2016,10,01,15,27,352.80
2016,10,01,15,28,341.20
2016,10,01,15,29,339.00
2016,10,01,15,30,344.00
2016,10,01,15,31,411.00
2016,10,01,15,32,443.90
2016,10,01,15,33,570.80
2016,10,01,15,34,592.00
2016,10,01,15,35,619.00
2016,10,01,15,36,576.30
2016,10,01,15,37,580.30
2016,10,01,15,38,609.00
2016,10,01,15,39,603.00
2016,10,01,15,40,600.20
2016,10,01,15,41,582.50
2016,10,01,15,42,575.40
2016,10,01,15,43,544.80
2016,10,01,15,44,499.00
2016,10,01,15,45,490.70
2016,10,01,15,46,340.80
2016,10,01,15,47,280.40
2016,10,01,15,48,288.90
2016,10,01,15,49,279.00
2016,10,01,15,50,254.30
2016,10,01,15,51,245.80
2016,10,01,15,52,257.00
2016,10,01,15,53,229.00
2016,10,01,15,54,177.50
2016,10,01,15,55,144.60
2016,10,01,15,56,149.30
2016,10,01,15,57,151.00
2016,10,01,15,58,151.00
2016,10,01,15,59,142.60
2016,10,01,16,00,146.50
2016,10,01,16,01,152.40
2016,10,01,16,02,149.40
2016,10,01,16,03,157.90
2016,10,01,16,04,174.30
2016,10,01,16,05,171.00
2016,10,01,16,06,167.30
2016,10,01,16,07,162.00
2016,10,01,16,08,162.60
2016,10,01,16,09,163.00
2016,10,01,16,10,163.00
2016,10,01,16,11,162.20
2016,10,01,16,12,162.00
2016,10,01,16,13,160.30
2016,10,01,16,14,160.00
2016,10,01,16,15,157.90
2016,10,01,16,16,155.90
2016,10,01,16,17,155.00
2016,10,01,16,18,155.00
2016,10,01,16,19,155.00
2016,10,01,16,20,155.00
2016,10,01,16,21,155.00
2016,10,01,16,22,154.00
2016,10,01,16,23,153.00
2016,10,01,16,24,153.00
2016,10,01,16,25,153.00
2016,10,01,16,26,153.00
2016,10,01,16,27,149.70
2016,10,01,16,28,146.30
2016,10,01,16,29,142.00
2016,10,01,16,30,138.90
2016,10,01,16,31,136.60
2016,10,01,16,32,133.70
2016,10,01,16,33,131.00
2016,10,01,16,34,127.70
2016,10,01,16,35,127.00
2016,10,01,16,36,125.20
2016,10,01,16,37,122.00
2016,10,01,16,38,119.20
2016,10,01,16,39,116.70
2016,10,01,16,40,113.90
2016,10,01,16,41,111.60
2016,10,01,16,42,109.40
2016,10,01,16,43,107.30
2016,10,01,16,44,107.00
2016,10,01,16,45,103.90
2016,10,01,16,46,102.30
2016,10,01,16,47,104.00
2016,10,01,16,48,106.20
2016,10,01,16,49,113.90
2016,10,01,16,50,116.00
2016,10,01,16,51,119.10
2016,10,01,16,52,123.00
2016,10,01,16,53,126.90
2016,10,01,16,54,130.00
2016,10,01,16,55,166.60
2016,10,01,16,56,161.80
2016,10,01,16,57,157.50
2016,10,01,16,58,149.90
2016,10,01,16,59,146.20
2016,10,01,17,00,142.10
2016,10,01,17,01,144.00
2016,10,01,17,02,156.80
2016,10,01,17,03,200.80
2016,10,01,17,04,185.00
2016,10,01,17,05,179.30
2016,10,01,17,06,205.30
2016,10,01,17,07,201.40
2016,10,01,17,08,147.80
2016,10,01,17,09,158.80
2016,10,01,17,10,198.00
2016,10,01,17,11,163.80
2016,10,01,17,12,134.80
2016,10,01,17,13,132.00
2016,10,01,17,14,164.60
2016,10,01,17,15,135.00
2016,10,01,17,16,128.50
2016,10,01,17,17,85.90
2016,10,01,17,18,78.40